STARLINK-1835, 46782

Orbit data source: Space-Track

STARLINK-1835, 46782 is a payload satellite owned by SpaceX/Seattle (US) in LEO that was launched on Sat, 24 Oct 2020 UTC via an FALCON 9 launch vehicle from the Air Force Eastern Test Range (AFETR). Payload-class satellites include a variety of spacecraft equipped with specific instruments for various scientific and technological missions. These include communications satellites like Starlink; space stations such as the ISS; scientific satellites like the Hubble; Earth observation satellites from companies like Planet Labs, Umbra, and HawkEye 360; GPS; miniature CubeSats for education and research; and military/defense satellites.

Loading next visibility...
Identifier
46782, 2020-074AV
Orbit
LEO
Country
Flag of USUS
Related business
Manufacturer
SpaceX/Seattle
Mission
Partially operational Commercial Communications
Bus & Motor
STARLINK, Unknown motor
Mass
260 kg wet, ~248 kg dry
Launch date (UTC)
2020-10-24 (6 years ago)
Launch vehicle
FALCON 9
Launch site
Air Force Eastern Test Range (AFETR)
Object type
Payload
Rocket body
Debris
Shape & HBR
Box + 1 Pan, 10.1 m
Radar Cross Section
13.562 m², Large (>1 m²)

Expand to show TLE details & history
Last TLE update: 2 days ago

TLE from 2 days ago
0 STARLINK-1835
1 46782U 20074AV  26171.30057787  .00114175  00000-0  62253-3 0  9994
2 46782  53.0389 128.8604 0001397 134.5266 225.5868 15.79103384313434
Epoch: 2026-06-20T07:12Z
TLE epoch observation values (Epoch: 2026-06-20T07:12:49.927Z)
Latitude
-0.0001°
Longitude
112.13512°
Altitude
334.541 km
Speed
7.709 km/s
True Right ascension
08h 35m 26s
True Declination
0° 00' 00"
Sunlit
Object was in daylight at epoch
Visualization orbit readout
Latitude
Unknown
Longitude
Unknown
Altitude
Unknown
Speed
Unknown
Apparent Right ascension
Unknown
Apparent Declination
Unknown
Sunlit
N/A
Visualization observer readout
Local Sidereal Time
21:39:36
Azimuth
Unknown
Elevation
Unknown
Doppler factor
Unknown
Orbital elements
Apogee altitude
334.199 km
Perigee altitude
332.324 km
Semi-major axis
6,711.398 km
Eccentricity
0.00014
Inclination
53.0389°
RAAN
128.8604°
Arg. of periapsis
134.5266°
True anomaly
225.57537°
Mean anomaly
225.5868°
Eccentric anomaly
225.58108°
Mean motion
3.94751 °/min
Orbital period
91.2 mins
BSTAR
0.00062253
Loading maneuver chart data...
Computing Atmospheric mass density...

Documentation

Showing up to 5 results
|